Weather History for KRAC - December, 2013

Change the Weather History Date:

Tuesday, December 3, 2013

  Actual Average Record
Temperature  
Mean Temperature 39 °F -  
Max Temperature 43 °F 36 °F 66 °F (2012)
Min Temperature 35 °F 22 °F 0 °F (1976)
Degree Days  
Heating Degree Days 26    
Moisture  
Dew Point 38 °F    
Average Humidity 95    
Maximum Humidity 100    
Minimum Humidity 89    
Precipitation  
Precipitation 0.14 in - - ()
Sea Level Pressure  
Sea Level Pressure 29.75 in    
Wind  
Wind Speed 11 mph (ESE)    
Max Wind Speed 16 mph    
Max Gust Speed -    
Visibility 1 miles    
Events Fog , Rain    
Averages and records for this station are not official NWS values.
T = Trace of Precipitation, MM = Missing Value Source: NWS Daily Summary

Daily Weather History Graph

Daily Weather History Graph

Search for Another Location

Airport or City:

Trip Planner

Search our weather history database for the weather conditions in past years. The results will help you decide how hot, cold, wet, or windy it might be!

Date:

Astronomy

Dec. 03, 2013 Rise Set
Actual Time 7:04 AM CST 4:17 PM CST
Civil Twilight 6:32 AM CST 4:49 PM CST
Nautical Twilight 5:57 AM CST 5:24 PM CST
Astronomical Twilight 5:23 AM CST 5:58 PM CST
Moon 7:32 AM CST (12/3) 5:21 PM CST (12/3)
Length of Visible Light 10h 16m
Length of Day
9h 13m
New Moon, 1% of the Moon is Illuminated
Dec 3
New Moon
Dec 9
First Quarter
Dec 17
Full
Dec 25
Last Quarter
Jan 1
New

Hourly Weather History & Observations

Time (CST) Temp. Windchill Dew Point Humidity Pressure Visibility Wind Dir Wind Speed Gust Speed Precip Events Conditions
12:51 AM 35.6 °F 26.6 °F 33.8 °F 93% 29.78 in 2.5 mi ESE 13.8 mph - 0.03 in Rain Rain
12:53 AM 36.0 °F 27.5 °F 33.1 °F 89% 29.80 in 3.0 mi ESE 12.7 mph - 0.03 in Rain Rain
1:16 AM 36.0 °F 26.3 °F 34.0 °F 93% 29.78 in 2.5 mi ESE 16.1 mph - 0.01 in Rain Light Rain
1:53 AM 36.0 °F 26.7 °F 35.1 °F 97% 29.80 in 1.5 mi ESE 15.0 mph - 0.02 in Rain Light Rain
2:18 AM 37.0 °F 28.1 °F 35.1 °F 93% 29.76 in 1.8 mi ESE 15.0 mph - 0.01 in Rain Light Rain
2:30 AM 37.0 °F 27.7 °F 35.1 °F 93% 29.76 in 2.0 mi SE 16.1 mph - 0.02 in Rain Light Rain
2:48 AM 37.4 °F 28.9 °F 35.6 °F 93% 29.75 in 3.0 mi SE 13.8 mph - 0.02 in Rain Light Rain
2:53 AM 37.0 °F 27.7 °F 35.1 °F 93% 29.78 in 3.0 mi SE 16.1 mph - 0.02 in   Overcast
3:05 AM 37.0 °F 28.9 °F 35.1 °F 93% 29.76 in 3.0 mi SE 12.7 mph - N/A   Overcast
3:53 AM 37.9 °F 30.5 °F 36.0 °F 93% 29.76 in 4.0 mi SE 11.5 mph - N/A   Overcast
4:53 AM 37.9 °F 31.5 °F 36.0 °F 93% 29.76 in 3.0 mi SE 9.2 mph - N/A   Overcast
5:53 AM 39.0 °F 31.4 °F 36.0 °F 89% 29.76 in 3.0 mi SSE 12.7 mph - N/A   Overcast
6:53 AM 39.0 °F 34.0 °F 37.0 °F 93% 29.77 in 2.5 mi SE 6.9 mph - N/A   Overcast
7:43 AM 39.0 °F 32.3 °F 37.0 °F 93% 29.74 in 1.2 mi SE 10.4 mph - N/A   Overcast
7:53 AM 39.0 °F 32.8 °F 37.0 °F 93% 29.78 in 1.8 mi SSE 9.2 mph - N/A   Overcast
8:24 AM 39.0 °F 31.8 °F 37.0 °F 93% 29.75 in 1.2 mi SE 11.5 mph - 0.00 in Rain Light Rain
8:53 AM 39.0 °F 32.8 °F 37.9 °F 96% 29.76 in 1.2 mi SE 9.2 mph - 0.00 in   Overcast
9:53 AM 39.9 °F 33.4 °F 37.9 °F 93% 29.79 in 1.0 mi SE 10.4 mph - N/A   Overcast
10:21 AM 39.9 °F 33.4 °F 39.0 °F 97% 29.75 in 0.8 mi SE 10.4 mph - N/A   Overcast
10:53 AM 39.9 °F 33.9 °F 39.0 °F 97% 29.76 in 0.2 mi SE 9.2 mph - N/A Fog Fog
11:38 AM 39.9 °F 33.9 °F 39.0 °F 97% 29.73 in 1.0 mi ESE 9.2 mph - N/A   Overcast
11:53 AM 39.9 °F 35.1 °F 39.0 °F 97% 29.75 in 1.0 mi ESE 6.9 mph - N/A   Overcast
12:53 PM 41.0 °F 35.2 °F 39.0 °F 93% 29.74 in 0.8 mi ESE 9.2 mph - 0.00 in   Overcast
1:19 PM 41.0 °F 35.2 °F 39.9 °F 96% 29.72 in 0.5 mi ESE 9.2 mph - N/A Fog Fog
1:53 PM 41.0 °F 35.2 °F 39.9 °F 96% 29.74 in 0.5 mi ESE 9.2 mph - N/A Fog Fog
2:14 PM 41.0 °F 37.1 °F 39.9 °F 96% 29.73 in 0.8 mi ESE 5.8 mph - N/A   Overcast
2:53 PM 42.1 °F 37.7 °F 41.0 °F 96% 29.73 in 0.2 mi East 6.9 mph - N/A Fog Fog
3:53 PM 42.1 °F 38.4 °F 41.0 °F 96% 29.73 in 0.2 mi East 5.8 mph - 0.00 in Fog Fog
4:53 PM 42.1 °F 38.4 °F 41.0 °F 96% 29.73 in 0.2 mi ENE 5.8 mph - 0.01 in Fog Fog
5:53 PM 42.1 °F 37.7 °F 39.9 °F 92% 29.73 in 0.8 mi East 6.9 mph - 0.01 in Rain Light Rain
6:53 PM 42.1 °F 35.7 °F 41.0 °F 96% 29.73 in 0.5 mi ESE 11.5 mph - 0.01 in Fog Fog
7:53 PM 43.0 °F - 41.0 °F 93% 29.76 in 0.2 mi Calm Calm - 0.00 in Fog Fog
8:41 PM 42.1 °F 39.2 °F 41.0 °F 96% 29.75 in 0.2 mi NW 4.6 mph - 0.03 in Fog Fog
8:53 PM 42.1 °F 40.2 °F 42.1 °F 100% 29.76 in 0.2 mi NNW 3.5 mph - 0.03 in Fog Fog
9:13 PM 42.1 °F 40.2 °F 41.0 °F 96% 29.74 in 0.2 mi North 3.5 mph - N/A Fog Fog
9:53 PM 41.0 °F 39.0 °F 41.0 °F 100% 29.76 in 0.2 mi NNE 3.5 mph - 0.01 in Fog Fog
10:53 PM 41.0 °F 39.0 °F 39.9 °F 96% 29.75 in 0.2 mi North 3.5 mph - N/A Fog Fog
11:53 PM 41.0 °F - 39.9 °F 96% 29.75 in 0.2 mi Calm Calm - N/A Fog Fog